Date String (YYYY-MM-DD hh:mm:ss) UTC,Instrument flags,Ambient pressure (hPa),Sample flow (lpm),Bypass flow (lpm),Sample temperature (°C),Ambient temperature (°C),ASC tube jacket temperature (°C),LED temperature (°C),Box temperature (°C),Sample RH (%),Span deviation,Mass concentration (μg/m³),Mass concentration (μg/m³),Mass concentration (μg/m³)
DateTimeUTC,F1_M11,P_M11,Q1_M11,Q2_M11,T1_M11,T2_M11,T3_M11,T4_M11,T5_M11,U1_M11,ZSPAN_M11,X0_M11,X2_M11,X1_M11
2021-12-26 11:00:00,,0811.5,5.00,0.00,22.6,21.9,00.0,31.6,24.3,07.9,0000.0,0001.42,0001.03,0000.89
2021-12-26 11:01:00,,0811.5,5.00,0.00,22.6,21.9,00.0,31.6,24.3,08.0,0000.0,0001.47,0001.05,0000.90
2021-12-26 11:02:00,,0811.6,4.99,0.00,22.6,21.9,00.0,31.6,24.3,08.0,0000.0,0002.08,0001.05,0000.90
2021-12-26 11:03:00,,0811.6,5.01,0.00,22.6,21.8,00.0,31.6,24.3,08.0,0000.0,0002.73,0001.04,0000.90
2021-12-26 11:04:00,,0811.6,4.99,0.00,22.6,21.8,00.0,31.5,24.3,07.8,0000.0,0002.73,0001.03,0000.90
2021-12-26 11:05:00,,0811.6,4.99,0.00,22.6,21.8,00.0,31.5,24.3,07.5,0000.0,0002.69,0001.00,0000.87
2021-12-26 11:06:00,,0811.5,5.00,0.00,22.6,21.8,00.0,31.5,24.3,07.6,0000.0,0002.69,0001.00,0000.85
2021-12-26 11:07:00,,0811.5,4.99,0.00,22.6,21.8,00.0,31.5,24.2,07.5,0000.0,0002.75,0001.02,0000.84
2021-12-26 11:08:00,,0811.5,5.00,0.00,22.6,21.8,00.0,31.5,24.2,07.7,0000.0,0002.70,0001.01,0000.84
2021-12-26 11:09:00,,0811.4,5.00,0.00,22.6,21.8,00.0,31.5,24.2,07.6,0000.0,0002.58,0000.99,0000.83
2021-12-26 11:10:00,,0811.4,5.01,0.00,22.5,21.8,00.0,31.5,24.2,07.7,0000.0,0002.59,0000.96,0000.80
2021-12-26 11:11:00,,0811.4,4.99,0.00,22.5,21.7,00.0,31.5,24.2,07.6,0000.0,0002.67,0000.97,0000.78
2021-12-26 11:12:00,,0811.3,5.00,0.00,22.5,21.7,00.0,31.5,24.1,07.6,0000.0,0002.63,0000.95,0000.75
2021-12-26 11:13:00,,0811.2,5.01,0.00,22.5,21.7,00.0,31.5,24.2,07.7,0000.0,0001.97,0000.93,0000.75
2021-12-26 11:14:00,,0811.2,5.00,0.00,22.5,21.7,00.0,31.5,24.2,07.8,0000.0,0001.32,0000.92,0000.73
2021-12-26 11:15:00,,0811.2,4.99,0.00,22.5,21.7,00.0,31.5,24.2,07.8,0000.0,0001.44,0000.92,0000.73
2021-12-26 11:16:00,,0811.2,4.99,0.00,22.5,21.7,00.0,31.5,24.1,07.8,0000.0,0002.00,0000.95,0000.75
2021-12-26 11:17:00,,0811.2,5.01,0.00,22.5,21.9,00.0,31.5,24.2,07.8,0000.0,0002.06,0000.96,0000.75
2021-12-26 11:18:00,,0811.2,4.99,0.00,22.6,22.5,00.0,31.5,24.4,07.7,0000.0,0001.97,0000.92,0000.76
2021-12-26 11:19:00,,0811.2,5.01,0.00,22.7,23.2,00.0,31.6,24.6,07.6,0000.0,0001.98,0000.91,0000.75
2021-12-26 11:20:00,,0811.2,5.00,0.00,22.8,23.2,00.0,31.6,24.7,07.6,0000.0,0001.98,0000.91,0000.76
2021-12-26 11:21:00,,0811.1,5.00,0.00,22.8,23.0,00.0,31.6,24.7,07.8,0000.0,0001.97,0000.92,0000.78
2021-12-26 11:22:00,,0811.1,5.01,0.00,22.8,22.8,00.0,31.6,24.6,07.8,0000.0,0001.89,0000.93,0000.80
2021-12-26 11:23:00,,0811.1,4.98,0.00,22.8,22.7,00.0,31.6,24.6,07.9,0000.0,0001.87,0000.92,0000.81
2021-12-26 11:24:00,,0811.1,5.01,0.00,22.8,22.5,00.0,31.7,24.5,07.9,0000.0,0001.86,0000.92,0000.82
2021-12-26 11:25:00,,0811.0,4.99,0.00,22.8,22.4,00.0,31.7,24.5,07.5,0000.0,0001.84,0000.91,0000.82
2021-12-26 11:26:00,,0811.0,5.01,0.00,22.8,22.3,00.0,31.7,24.5,07.4,0000.0,0001.84,0000.91,0000.81
2021-12-26 11:27:00,,0811.0,5.00,0.00,22.8,22.2,00.0,31.7,24.4,07.4,0000.0,0001.22,0000.88,0000.80
2021-12-26 11:28:00,,0811.0,4.99,0.00,22.7,22.2,00.0,31.7,24.4,07.3,0000.0,0001.09,0000.87,0000.80
2021-12-26 11:29:00,,0811.0,5.00,0.00,22.7,22.1,00.0,31.7,24.4,07.3,0000.0,0001.13,0000.89,0000.80
2021-12-26 11:30:00,,0811.0,5.02,0.00,22.7,22.1,00.0,31.7,24.4,07.3,0000.0,0001.13,0000.89,0000.79
2021-12-26 11:31:00,,0811.1,4.99,0.00,22.7,22.0,00.0,31.6,24.4,07.3,0000.0,0001.13,0000.88,0000.79
2021-12-26 11:32:00,,0811.0,5.01,0.00,22.7,22.0,00.0,31.6,24.3,07.3,0000.0,0001.08,0000.85,0000.75
2021-12-26 11:33:00,,0811.1,5.00,0.00,22.7,21.9,00.0,31.6,24.3,07.4,0000.0,0001.05,0000.82,0000.73
2021-12-26 11:34:00,,0811.0,5.00,0.00,22.6,21.9,00.0,31.6,24.3,07.5,0000.0,0000.99,0000.79,0000.71
2021-12-26 11:35:00,,0811.0,4.99,0.00,22.6,21.9,00.0,31.6,24.3,07.5,0000.0,0000.96,0000.76,0000.69
2021-12-26 11:36:00,,0811.1,5.01,0.00,22.6,21.9,00.0,31.6,24.2,07.5,0000.0,0000.93,0000.74,0000.67
2021-12-26 11:37:00,,0811.1,5.01,0.00,22.6,21.8,00.0,31.6,24.2,07.6,0000.0,0000.90,0000.72,0000.67
2021-12-26 11:38:00,,0811.1,5.00,0.00,22.6,21.8,00.0,31.6,24.1,07.7,0000.0,0000.88,0000.71,0000.66
2021-12-26 11:39:00,,0811.0,5.01,0.00,22.5,21.8,00.0,31.6,24.1,07.9,0000.0,0000.91,0000.72,0000.65
2021-12-26 11:40:00,,0811.0,4.99,0.00,22.5,21.8,00.0,31.6,24.1,07.9,0000.0,0000.91,0000.71,0000.63
2021-12-26 11:41:00,,0811.0,4.99,0.00,22.5,21.8,00.0,31.6,24.1,07.9,0000.0,0000.96,0000.71,0000.63
2021-12-26 11:42:00,,0811.0,4.99,0.00,22.5,21.7,00.0,31.5,24.1,08.1,0000.0,0000.96,0000.71,0000.61
2021-12-26 11:43:00,,0811.0,5.02,0.00,22.5,21.7,00.0,31.5,24.1,08.3,0000.0,0001.00,0000.73,0000.62
2021-12-26 11:44:00,,0811.0,4.99,0.00,22.4,21.7,00.0,31.5,24.0,08.4,0000.0,0001.08,0000.76,0000.62
2021-12-26 11:45:00,,0811.1,5.00,0.00,22.4,21.7,00.0,31.5,24.0,08.6,0000.0,0001.13,0000.79,0000.62
2021-12-26 11:46:00,,0811.0,5.00,0.00,22.4,21.7,00.0,31.5,24.0,08.6,0000.0,0001.19,0000.82,0000.64
2021-12-26 11:47:00,,0811.0,4.99,0.00,22.4,21.7,00.0,31.5,24.1,08.7,0000.0,0001.79,0000.85,0000.65
2021-12-26 11:48:00,,0811.1,5.01,0.00,22.4,21.9,00.0,31.5,24.1,08.7,0000.0,0003.55,0000.86,0000.66
2021-12-26 11:49:00,,0811.0,4.99,0.00,22.5,22.5,00.0,31.5,24.3,08.6,0000.0,0003.62,0000.89,0000.66
2021-12-26 11:50:00,,0811.0,5.00,0.00,22.7,23.0,00.0,31.6,24.6,08.5,0000.0,0003.65,0000.91,0000.67
2021-12-26 11:51:00,,0811.0,5.01,0.00,22.7,23.0,00.0,31.6,24.6,08.5,0000.0,0004.34,0000.90,0000.68
2021-12-26 11:52:00,,0811.0,5.00,0.00,22.8,22.9,00.0,31.6,24.6,08.5,0000.0,0004.73,0000.91,0000.70
2021-12-26 11:53:00,,0811.0,5.01,0.00,22.8,22.7,00.0,31.6,24.6,08.5,0000.0,0004.81,0000.93,0000.72
2021-12-26 11:54:00,,0810.9,5.00,0.00,22.7,22.5,00.0,31.6,24.5,08.5,0000.0,0004.91,0000.97,0000.74
2021-12-26 11:55:00,,0810.9,4.99,0.00,22.7,22.4,00.0,31.6,24.5,08.5,0000.0,0005.08,0001.03,0000.77
2021-12-26 11:56:00,,0810.9,5.00,0.00,22.7,22.3,00.0,31.6,24.4,08.5,0000.0,0005.16,0001.06,0000.79
2021-12-26 11:57:00,,0810.8,4.98,0.00,22.7,22.2,00.0,31.6,24.4,08.3,0000.0,0005.14,0001.06,0000.81
2021-12-26 11:58:00,,0810.8,5.00,0.00,22.7,22.1,00.0,31.6,24.4,08.2,0000.0,0005.52,0001.10,0000.82
2021-12-26 11:59:00,,0810.8,5.00,0.00,22.7,22.1,00.0,31.6,24.4,08.2,0000.0,0004.93,0001.17,0000.83
